{"data":{"norad_id":65550,"epoch":"2026-09-20T20:46:23.018016Z","epoch_age_seconds":120908,"freshness":"FRESH","line1":"1 65550U 25201A   26263.86554419  .00000762  00000+0  11647-3 0  9998","line2":"2 65550  49.9928 315.7264 0002727  51.8391 308.2793 14.84407515 56010","mean_motion":14.84407515,"eccentricity":0.0002727,"inclination_deg":49.9928,"raan_deg":315.7264,"arg_perigee_deg":51.8391,"mean_anomaly_deg":308.2793,"bstar":0.00011647,"rev_number":5601,"period_min":97.008401362075,"perigee_km":613.53903704634,"apogee_km":617.35333731663,"semimajor_km":6993.5831871815,"source":"CELESTRAK","updated_at":"2026-09-21T09:00:15.424044Z"}}